Location: Moscow
(55.7500°N, 37.5830°E)
Time: 07:31:05
(UTC+03:00)

A-11 Canister half - Pass Details

Date: 06 December 2021
Orbit: 1524 x 1684 km, 47.3° (Epoch: 17 January)

Event Time Altitude Azimuth Distance (km) Brightness Sun altitude
Exits shadow 07:39:27 - 277° (W) 4,301 10.8 -8.1°
Reaches altitude 10° 07:40:57 10° 272° (W) 3,915 10.6 -7.9°
Maximum altitude 07:48:50 28° 219° (SW) 2,718 10.2 -7.0°
Drops below altitude 10° 07:56:33 10° 166° (SSE) 3,807 11.8 -6.0°
Sets 08:00:10 0° 155° (SSE) 4,765 12.7 -5.6°
